FALCON 9 R/B, 43563

Orbit data source: Space-Track

FALCON 9 R/B, 43563 is space debris originally from a launch on Sun, 22 Jul 2018 UTC launched from the Air Force Eastern Test Range (AFETR). Debris objects in space refer to the collection of defunct objects orbiting the Earth. Examples of debris include non-operational satellites, rocket bodies, and fragments generated from explosions, collisions, or faulty payload assembly.

Loading next visibility...
Identifier
43563, 2018-059B
Orbit
Active
Country
Flag of USUS
Related business
Manufacturer
SpaceX
Mission
Spacecraft
Bus & Motor
F9ST2, Unknown motor
Mass
~4,000 kg wet, ~4,000 kg dry
Launch date (UTC)
2018-07-22 (8 years ago)
Launch vehicle
Unknown
Launch site
Air Force Eastern Test Range (AFETR)
Object type
Payload
Rocket body
Debris
Shape & HBR
Cyl, 7.8 m
Radar Cross Section
39.980 m², Large (>1 m²)

Expand to show TLE details & history
Last TLE update: 2 days ago

TLE from 2 days ago
0 FALCON 9 R/B
1 43563U 18059B   26171.40788895  .00093715  00000-0  11519-2 0  9994
2 43563  26.9768  65.7295 4111067  68.9143 329.6685  7.35310848157704
Epoch: 2026-06-20T09:47Z
TLE epoch observation values (Epoch: 2026-06-20T09:47:21.605Z)
Latitude
-0.00001°
Longitude
10.26652°
Altitude
1,704.936 km
Speed
7.934 km/s
True Right ascension
04h 22m 55s
True Declination
0° 00' 00"
Sunlit
Object was in daylight at epoch
Visualization orbit readout
Latitude
Unknown
Longitude
Unknown
Altitude
Unknown
Speed
Unknown
Apparent Right ascension
Unknown
Apparent Declination
Unknown
Sunlit
N/A
Visualization observer readout
Local Sidereal Time
21:34:13
Azimuth
Unknown
Elevation
Unknown
Doppler factor
Unknown
Orbital elements
Apogee altitude
9,390.272 km
Perigee altitude
202.45 km
Semi-major axis
11,174.498 km
Eccentricity
0.41111
Inclination
26.9768°
RAAN
65.7295°
Arg. of periapsis
68.9143°
True anomaly
291.13574°
Mean anomaly
329.6685°
Eccentric anomaly
312.22637°
Mean motion
1.83739 °/min
Orbital period
195.93 mins
BSTAR
0.0011519
Loading maneuver chart data...
Computing Atmospheric mass density...
Loading historical data...
Loading historical data...
Loading historical data...
Loading historical data...
Loading historical data...
Loading historical data...
Loading historical data...
Other satellites on launch #59 in the year 2018 (2018-07-22 UTC)

Documentation

Showing up to 5 results
|